F3625 Weather Reports


time (UTC)temp
C
wind
direction
speed
KPH
gust
KPH
rain 1hr
cm
rain 24hr
cm
rain mn
cm
humidity
%
barometer
mb
20260503175539 13 0 1.6 14.5 0.00 0.00 0.00 54 1010.4
20260503175040 13 233 4.8 14.5 0.00 0.00 0.00 54 1010.5
20260503174555 13 217 3.2 12.9 0.00 0.00 0.00 53 1010.6
20260503174039 13 228 0.0 9.7 0.00 0.00 0.00 55 1010.5
20260503173539 13 0 3.2 14.5 0.00 0.00 0.00 55 1010.6
20260503173055 13 218 4.8 16.1 0.00 0.00 0.00 54 1010.4
20260503172539 13 213 4.8 16.1 0.00 0.00 0.00 55 1010.3
20260503172043 13 243 3.2 8.0 0.00 0.00 0.00 55 1010.2
20260503171549 13 225 1.6 9.7 0.00 0.00 0.00 56 1010.3
20260503171039 13 223 1.6 11.3 0.00 0.00 0.00 57 1010.3
20260503170540 13 0 1.6 11.3 0.00 0.00 0.00 58 1010.2
20260503150542 12 242 1.6 4.8 0.00 0.00 0.00 59 1009.8
20260503131039 11 0 1.6 4.8 0.00 0.00 0.00 60 1008.4
20260503130539 11 0 0.0 3.2 0.00 0.00 0.00 60 1008.3
20260503110542 11 0 0.0 4.8 0.00 0.00 0.00 59 1008.5
20260503100105 11 203 1.6 11.3 0.00 0.00 0.00 59 1008.4
20260503081555 11 0 0.0 1.6 0.00 0.00 0.00 60 1009.1
20260503081040 11 0 0.0 8.0 0.00 0.00 0.00 60 1009.2
20260503080544 11 0 1.6 9.7 0.00 0.00 0.00 60 1009.2
20260503072542 12 0 0.0 3.2 0.00 0.00 0.00 60 1009.2
20260503072039 12 0 0.0 3.2 0.00 0.00 0.00 60 1009.3
20260503071546 12 0 0.0 1.6 0.00 0.00 0.00 60 1009.2
20260503071043 12 0 0.0 3.2 0.00 0.00 0.00 60 1009.2
20260503070539 12 0 0.0 3.2 0.00 0.00 0.00 60 1009.2
20260503060113 12 0 0.0 1.6 0.00 0.00 0.00 59 1009.6
20260503055043 12 0 0.0 3.2 0.00 0.00 0.00 59 1009.8
20260503054553 12 0 0.0 8.0 0.00 0.00 0.00 59 1009.8
20260503054044 12 0 1.6 8.0 0.00 0.00 0.00 59 1009.9
20260503053544 12 0 0.0 4.8 0.00 0.00 0.00 59 1009.9
20260503053053 12 0 0.0 3.2 0.00 0.00 0.00 59 1009.9
20260503052544 12 0 0.0 3.2 0.00 0.00 0.00 59 1009.9
20260503052044 12 134 0.0 3.2 0.00 0.00 0.00 59 1010.0
20260503051549 12 0 0.0 3.2 0.00 0.00 0.00 59 1009.9
20260503051043 12 0 0.0 1.6 0.00 0.00 0.00 59 1009.9
20260503050544 12 0 0.0 1.6 0.00 0.00 0.00 60 1009.8
20260503050052 12 0 0.0 3.2 0.00 0.00 0.00 60 1009.9
20260503045543 12 0 0.0 3.2 0.00 0.00 0.00 59 1009.8
20260503045043 12 133 0.0 1.6 0.00 0.00 0.00 60 1009.7
20260503044617 12 0 0.0 1.6 0.00 0.00 0.00 60 1009.6
20260503044042 12 0 0.0 3.2 0.00 0.00 0.00 60 1009.5
20260503043543 12 0 0.0 6.4 0.00 0.00 0.00 59 1009.5
20260503043046 12 0 1.6 6.4 0.00 0.00 0.00 59 1009.5
20260503042546 12 0 0.0 3.2 0.00 0.00 0.00 59 1009.5
20260503042046 12 0 0.0 3.2 0.00 0.00 0.00 59 1009.4
20260503041555 12 0 0.0 12.9 0.00 0.00 0.00 59 1009.4
20260503041044 12 63 1.6 12.9 0.00 0.00 0.00 59 1009.2
20260503040543 12 0 0.0 3.2 0.00 0.00 0.00 59 1009.2
20260503040104 12 0 0.0 4.8 0.00 0.00 0.00 59 1009.1
20260503035545 12 0 0.0 4.8 0.00 0.00 0.00 59 1009.2
20260503035043 12 226 0.0 4.8 0.00 0.00 0.00 59 1008.9
20260503034556 12 226 0.0 6.4 0.00 0.00 0.00 59 1009.0
20260503034042 12 0 0.0 6.4 0.00 0.00 0.00 60 1008.8
20260503033543 12 0 0.0 4.8 0.00 0.00 0.00 59 1009.0
20260503033053 12 227 0.0 3.2 0.00 0.00 0.00 59 1008.9
20260503032544 12 0 0.0 3.2 0.00 0.00 0.00 59 1008.8
20260503032044 12 0 0.0 3.2 0.00 0.00 0.00 59 1008.6
20260503031556 12 0 0.0 4.8 0.00 0.00 0.00 59 1008.6
20260503031044 12 0 0.0 9.7 0.00 0.00 0.00 59 1008.5
20260503030606 12 227 0.0 9.7 0.00 0.00 0.00 58 1008.5
20260503030104 12 215 1.6 8.0 0.00 0.00 0.00 58 1008.3
20260503025544 12 214 0.0 6.4 0.00 0.00 0.00 58 1008.3
20260503025047 12 0 0.0 6.4 0.00 0.00 0.00 58 1008.3
20260503024556 12 206 1.6 6.4 0.00 0.00 0.00 58 1008.3
20260503024043 12 206 0.0 11.3 0.00 0.00 0.00 58 1008.3
20260503023542 12 206 1.6 16.1 0.00 0.00 0.00 58 1008.3
20260503023058 12 205 1.6 16.1 0.00 0.00 0.00 57 1008.1
20260503022543 12 0 1.6 11.3 0.00 0.00 0.00 57 1008.2
20260503022041 13 210 1.6 11.3 0.00 0.00 0.00 57 1008.2
20260503021553 13 200 0.0 11.3 0.00 0.00 0.00 57 1008.2
20260503021043 13 225 1.6 9.7 0.00 0.00 0.00 56 1008.2
20260503020543 13 0 3.2 9.7 0.00 0.00 0.00 56 1008.2
20260503015543 13 198 3.2 27.4 0.00 0.00 0.00 56 1008.2
20260503015043 13 226 3.2 27.4 0.00 0.00 0.00 55 1008.3
20260503014554 13 224 1.6 11.3 0.00 0.00 0.00 55 1008.3
20260503014043 13 210 1.6 12.9 0.00 0.00 0.00 55 1008.4
20260503013543 13 224 3.2 14.5 0.00 0.00 0.00 55 1008.2
20260503013107 14 190 4.8 14.5 0.00 0.00 0.00 55 1008.2
20260503012546 14 215 4.8 12.9 0.00 0.00 0.00 54 1008.3
20260503012043 14 196 1.6 12.9 0.00 0.00 0.00 54 1008.4
20260503011553 14 198 3.2 14.5 0.00 0.00 0.00 54 1008.5
20260503011043 15 0 3.2 14.5 0.00 0.00 0.00 54 1008.3
20260503010543 15 194 1.6 11.3 0.00 0.00 0.00 54 1008.4
20260503010051 15 225 3.2 11.3 0.00 0.00 0.00 53 1008.3
20260503005544 15 269 1.6 14.5 0.00 0.00 0.00 52 1008.4
20260503005045 15 215 1.6 14.5 0.00 0.00 0.00 53 1008.5
20260503004555 15 204 1.6 17.7 0.00 0.00 0.00 52 1008.4
20260503004043 16 214 4.8 17.7 0.00 0.00 0.00 51 1008.5
20260503003543 16 217 4.8 11.3 0.00 0.00 0.00 52 1008.4
20260503003052 16 192 3.2 11.3 0.00 0.00 0.00 51 1008.3
20260503002546 16 208 3.2 11.3 0.00 0.00 0.00 51 1008.4
20260503002043 16 202 1.6 9.7 0.00 0.00 0.00 51 1008.5
20260503001608 16 201 1.6 11.3 0.00 0.00 0.00 51 1008.4
20260503001045 16 228 1.6 11.3 0.00 0.00 0.00 52 1008.5
20260503000543 16 219 3.2 19.3 0.00 0.00 0.00 51 1008.4
20260503000110 16 294 4.8 19.3 0.00 0.00 0.00 51 1008.4
20260502235543 16 207 3.2 16.1 0.00 0.00 0.00 51 1008.3
20260502235043 16 238 4.8 17.7 0.00 0.00 0.00 51 1008.5
20260502234613 17 191 6.4 17.7 0.00 0.00 0.00 49 1008.3
20260502234043 17 0 0.0 16.1 0.00 0.00 0.00 51 1008.5
20260502233540 17 245 3.2 16.1 0.00 0.00 0.00 50 1008.6
20260502233047 17 191 1.6 16.1 0.00 0.00 0.00 48 1008.6
20260502232540 17 215 1.6 20.9 0.00 0.00 0.00 50 1008.7
20260502232043 17 210 6.4 20.9 0.00 0.00 0.00 48 1008.7
20260502231553 17 225 1.6 16.1 0.00 0.00 0.00 50 1008.9
20260502231043 17 248 3.2 17.7 0.00 0.00 0.00 51 1008.8
20260502230543 17 257 6.4 17.7 0.00 0.00 0.00 49 1008.9
20260502230055 17 282 3.2 14.5 0.00 0.00 0.00 48 1009.0
20260502225547 17 0 3.2 12.9 0.00 0.00 0.00 50 1009.1
20260502225043 17 290 4.8 12.9 0.00 0.00 0.00 48 1009.2
20260502224557 17 0 6.4 16.1 0.00 0.00 0.00 49 1009.3
20260502224041 17 206 4.8 16.1 0.00 0.00 0.00 50 1009.4
20260502223543 17 222 4.8 14.5 0.00 0.00 0.00 49 1009.6
20260502223059 17 239 4.8 19.3 0.00 0.00 0.00 49 1009.6
20260502222540 16 213 4.8 19.3 0.00 0.00 0.00 50 1009.6
20260502222039 17 234 4.8 16.1 0.00 0.00 0.00 50 1009.9
20260502221600 16 216 6.4 16.1 0.00 0.00 0.00 50 1009.9
20260502221039 16 216 4.8 16.1 0.00 0.00 0.00 50 1010.0
20260502220540 16 212 6.4 19.3 0.00 0.00 0.00 50 1010.1
20260502220056 16 0 4.8 19.3 0.00 0.00 0.00 51 1010.0
20260502215541 16 243 8.0 20.9 0.00 0.00 0.00 51 1010.2
20260502215043 16 238 4.8 20.9 0.00 0.00 0.00 51 1010.3
20260502214612 16 257 8.0 20.9 0.00 0.00 0.00 51 1010.2
20260502214043 16 217 4.8 14.5 0.00 0.00 0.00 51 1010.4
20260502213548 16 193 4.8 12.9 0.00 0.00 0.00 51 1010.3
20260502213105 16 200 3.2 14.5 0.00 0.00 0.00 51 1010.4
20260502212543 16 246 4.8 16.1 0.00 0.00 0.00 51 1010.6
20260502212042 16 238 6.4 16.1 0.00 0.00 0.00 51 1010.4
20260502211552 16 223 4.8 16.1 0.00 0.00 0.00 51 1010.6
20260502211044 16 210 4.8 14.5 0.00 0.00 0.00 52 1010.5
20260502210540 16 221 4.8 12.9 0.00 0.00 0.00 51 1010.7
20260502210050 16 229 1.6 16.1 0.00 0.00 0.00 54 1010.7
20260502205542 16 217 6.4 16.1 0.00 0.00 0.00 52 1010.8
20260502205042 16 211 6.4 16.1 0.00 0.00 0.00 52 1010.8
20260502204554 16 210 3.2 11.3 0.00 0.00 0.00 52 1010.9
20260502204040 16 225 3.2 12.9 0.00 0.00 0.00 52 1010.9
20260502203543 16 196 4.8 12.9 0.00 0.00 0.00 53 1011.0
20260502203108 16 215 3.2 17.7 0.00 0.00 0.00 53 1011.1
20260502202544 15 213 8.0 17.7 0.00 0.00 0.00 53 1011.1
20260502202045 15 229 6.4 14.5 0.00 0.00 0.00 53 1011.2
20260502201547 15 209 3.2 14.5 0.00 0.00 0.00 53 1011.3
20260502201045 15 204 3.2 14.5 0.00 0.00 0.00 52 1011.2
20260502200543 15 0 1.6 12.9 0.00 0.00 0.00 53 1011.3
20260502200054 15 219 3.2 8.0 0.00 0.00 0.00 53 1011.3
20260502195542 15 217 3.2 12.9 0.00 0.00 0.00 53 1011.4
20260502195042 15 240 1.6 12.9 0.00 0.00 0.00 53 1011.2
20260502194548 15 210 3.2 14.5 0.00 0.00 0.00 53 1011.3
20260502194043 15 211 3.2 14.5 0.00 0.00 0.00 53 1011.3
20260502193543 15 228 1.6 14.5 0.00 0.00 0.00 54 1011.3
20260502193048 15 214 6.4 14.5 0.00 0.00 0.00 54 1011.3
20260502192543 15 244 1.6 9.7 0.00 0.00 0.00 53 1011.4
20260502192043 15 217 1.6 12.9 0.00 0.00 0.00 54 1011.4
20260502191550 15 238 1.6 12.9 0.00 0.00 0.00 54 1011.3
20260502191042 14 237 3.2 11.3 0.00 0.00 0.00 54 1011.5
20260502190546 14 236 1.6 12.9 0.00 0.00 0.00 54 1011.4
20260502190049 14 225 4.8 14.5 0.00 0.00 0.00 54 1011.5
20260502185539 14 234 3.2 16.1 0.00 0.00 0.00 54 1011.4
20260502185045 14 209 6.4 16.1 0.00 0.00 0.00 54 1011.4
20260502184552 13 217 4.8 14.5 0.00 0.00 0.00 55 1011.5
20260502184043 13 213 4.8 14.5 0.00 0.00 0.00 54 1011.4
20260502183543 13 232 4.8 14.5 0.00 0.00 0.00 54 1011.4
20260502183048 13 217 3.2 11.3 0.00 0.00 0.00 55 1011.4
20260502182545 13 200 1.6 12.9 0.00 0.00 0.00 55 1011.4
20260502182044 13 194 3.2 12.9 0.00 0.00 0.00 55 1011.5
20260502181550 13 257 1.6 9.7 0.00 0.00 0.00 55 1011.5
20260502181042 13 0 3.2 17.7 0.00 0.00 0.00 55 1011.5
20260502180542 13 218 6.4 17.7 0.00 0.00 0.00 55 1011.5